Murray, KY

12:41 PM CDT on May 23, 2018 (GMT -0500)
Kyle-Oakley

Weather History for KCEY - March, 2012

Change the Weather History Date:

Sunday, March 25, 2012

  Actual Average (KPAH) Record (KPAH)
Temperature  
Mean Temperature 58 °F -  
Max Temperature 68 °F 55 °F 83 °F (2007)
Min Temperature 48 °F 37 °F 18 °F (1955)
Degree Days  
Heating Degree Days 7    
Growing Degree Days 8 (Base 50)    
Moisture  
Dew Point 52 °F    
Average Humidity 78    
Maximum Humidity 100    
Minimum Humidity 60    
Precipitation  
Precipitation 0.01 in - - ()
Sea Level Pressure  
Sea Level Pressure 29.99 in    
Wind  
Wind Speed 6 mph (NW)    
Max Wind Speed 16 mph    
Max Gust Speed 22 mph    
Visibility 9 miles    
Events      
Averages and records for this station are not official NWS values.
T = Trace of Precipitation, MM = Missing Value Source: NWS Daily Summary

Daily Weather History Graph

Daily Weather History Graph

Search for Another Location

Airport or City:

Astronomy

Mar. 25, 2012 Rise Set
Actual Time 6:48 AM CDT 7:10 PM CDT
Civil Twilight 6:23 AM CDT 7:36 PM CDT
Nautical Twilight 5:52 AM CDT 8:06 PM CDT
Astronomical Twilight 5:21 AM CDT 8:37 PM CDT
Moon 8:06 AM CDT (3/25) 10:19 PM CDT (3/25)
Length of Visible Light 13h 12m
Length of Day
12h 21m
Waxing Crescent, 9% of the Moon is Illuminated
Mar 25
Waxing Crescent
Mar 30
First Quarter
Apr 6
Full
Apr 13
Last Quarter
Apr 21
New

Hourly Weather History & Observations

Time (CDT) Temp. Dew Point Humidity Pressure Visibility Wind Dir Wind Speed Gust Speed Precip Events Conditions
12:15 AM 55.4 °F 48.2 °F 77% 29.94 in 10.0 mi SW 3.5 mph - N/A   Mostly Cloudy
12:35 AM 55.4 °F 48.2 °F 77% 29.94 in 10.0 mi SW 6.9 mph - N/A   Mostly Cloudy
12:55 AM 55.4 °F 48.2 °F 77% 29.94 in 10.0 mi SW 4.6 mph - N/A   Partly Cloudy
1:15 AM 55.4 °F 48.2 °F 77% 29.93 in 10.0 mi SSW 5.8 mph - N/A   Scattered Clouds
1:35 AM 55.4 °F 48.2 °F 77% 29.94 in 10.0 mi Calm Calm - N/A   Mostly Cloudy
1:55 AM 55.4 °F 50.0 °F 82% 29.94 in 10.0 mi Calm Calm - N/A   Overcast
2:15 AM 55.4 °F 50.0 °F 82% 29.96 in 8.0 mi North 6.9 mph - N/A   Overcast
2:35 AM 53.6 °F 51.8 °F 94% 29.95 in 9.0 mi ENE 3.5 mph - 0.01 in   Overcast
2:55 AM 53.6 °F 51.8 °F 94% 29.95 in 7.0 mi NE 6.9 mph - 0.01 in   Overcast
3:15 AM 53.6 °F 51.8 °F 94% 29.94 in 5.0 mi Calm Calm - N/A   Overcast
3:35 AM 53.6 °F 51.8 °F 94% 29.94 in 2.5 mi Calm Calm - N/A   Scattered Clouds
3:55 AM 51.8 °F 50.0 °F 94% 29.93 in 5.0 mi Calm Calm - N/A   Clear
4:15 AM 50.0 °F 50.0 °F 100% 29.93 in 1.5 mi Calm Calm - N/A   Clear
4:35 AM 50.0 °F 50.0 °F 100% 29.92 in 3.0 mi Calm Calm - N/A   Clear
4:55 AM 50.0 °F 50.0 °F 100% 29.93 in 5.0 mi Calm Calm - N/A   Clear
5:15 AM 50.0 °F 50.0 °F 100% 29.94 in 7.0 mi West 4.6 mph - N/A   Clear
5:35 AM 50.0 °F 50.0 °F 100% 29.95 in 6.0 mi WSW 3.5 mph - N/A   Clear
5:55 AM 50.0 °F 50.0 °F 100% 29.95 in 9.0 mi WSW 4.6 mph - N/A   Clear
6:15 AM 48.2 °F 48.2 °F 100% 29.95 in 7.0 mi West 5.8 mph - N/A   Clear
6:35 AM 48.2 °F 48.2 °F 100% 29.96 in 10.0 mi West 5.8 mph - N/A   Clear
6:55 AM 50.0 °F 50.0 °F 100% 29.97 in 9.0 mi West 5.8 mph - N/A   Scattered Clouds
7:15 AM 50.0 °F 50.0 °F 100% 29.97 in 9.0 mi West 5.8 mph - N/A   Partly Cloudy
7:55 AM 53.6 °F 53.6 °F 100% 29.98 in 8.0 mi NW 5.8 mph - N/A   Clear
8:15 AM 55.4 °F 53.6 °F 94% 29.99 in 9.0 mi NW 6.9 mph - N/A   Clear
8:55 AM 59.0 °F 55.4 °F 88% 29.99 in 10.0 mi NNW 9.2 mph - N/A   Clear
9:15 AM 59.0 °F 55.4 °F 88% 30.00 in 10.0 mi NNW 8.1 mph - N/A   Clear
9:55 AM 62.6 °F 55.4 °F 77% 30.01 in 10.0 mi NNW 11.5 mph - N/A   Clear
10:35 AM 64.4 °F 53.6 °F 68% 30.01 in 10.0 mi NNW 11.5 mph 19.6 mph N/A   Clear
10:55 AM 64.4 °F 53.6 °F 68% 30.02 in 10.0 mi NNW 15.0 mph - N/A   Clear
11:15 AM 64.4 °F 55.4 °F 73% 30.02 in 10.0 mi NNW 12.7 mph 17.3 mph N/A   Scattered Clouds
11:35 AM 64.4 °F 53.6 °F 68% 30.02 in 10.0 mi North 16.1 mph 19.6 mph N/A   Mostly Cloudy
11:55 AM 64.4 °F 53.6 °F 68% 30.03 in 10.0 mi North 12.7 mph 17.3 mph N/A   Partly Cloudy
12:15 PM 64.4 °F 53.6 °F 68% 30.02 in 10.0 mi NNE 15.0 mph 21.9 mph N/A   Clear
12:35 PM 66.2 °F 53.6 °F 64% 30.02 in 10.0 mi NNE 15.0 mph 18.4 mph N/A   Scattered Clouds
12:55 PM 66.2 °F 53.6 °F 64% 30.02 in 10.0 mi North 11.5 mph 16.1 mph N/A   Overcast
1:15 PM 66.2 °F 53.6 °F 64% 30.02 in 10.0 mi North 10.4 mph 18.4 mph N/A   Overcast
1:35 PM 66.2 °F 53.6 °F 64% 30.02 in 10.0 mi North 8.1 mph - N/A   Overcast
1:55 PM 66.2 °F 53.6 °F 64% 30.02 in 10.0 mi North 8.1 mph - N/A   Overcast
2:15 PM 66.2 °F 55.4 °F 68% 30.01 in 10.0 mi North 8.1 mph - N/A   Overcast
2:35 PM 66.2 °F 53.6 °F 64% 30.00 in 10.0 mi North 9.2 mph - N/A   Overcast
2:55 PM 66.2 °F 55.4 °F 68% 30.01 in 10.0 mi North 9.2 mph - N/A   Overcast
3:15 PM 66.2 °F 53.6 °F 64% 30.01 in 10.0 mi NNW 10.4 mph - N/A   Overcast
3:35 PM 68.0 °F 53.6 °F 60% 30.01 in 10.0 mi NW 10.4 mph - N/A   Overcast
3:55 PM 68.0 °F 53.6 °F 60% 30.01 in 10.0 mi NW 9.2 mph - N/A   Overcast
4:15 PM 68.0 °F 53.6 °F 60% 30.01 in 10.0 mi NNW 8.1 mph - N/A   Overcast
4:35 PM 68.0 °F 53.6 °F 60% 30.01 in 10.0 mi NNW 10.4 mph - N/A   Overcast
4:55 PM 68.0 °F 53.6 °F 60% 30.01 in 10.0 mi NNW 10.4 mph - N/A   Overcast
5:15 PM 68.0 °F 55.4 °F 64% 30.01 in 10.0 mi NNW 8.1 mph - N/A   Mostly Cloudy
5:35 PM 66.2 °F 53.6 °F 64% 30.02 in 10.0 mi NNW 5.8 mph - N/A   Scattered Clouds
5:55 PM 68.0 °F 53.6 °F 60% 30.02 in 10.0 mi NW 10.4 mph - N/A   Partly Cloudy
6:15 PM 66.2 °F 53.6 °F 64% 30.02 in 10.0 mi NNW 9.2 mph - N/A   Partly Cloudy
6:35 PM 66.2 °F 53.6 °F 64% 30.02 in 10.0 mi NNW 8.1 mph - N/A   Clear
6:55 PM 64.4 °F 53.6 °F 68% 30.03 in 10.0 mi NNW 5.8 mph - N/A   Clear
7:15 PM 64.4 °F 53.6 °F 68% 30.03 in 10.0 mi NNW 5.8 mph - N/A   Clear
7:55 PM 62.6 °F 53.6 °F 72% 30.04 in 10.0 mi NW 4.6 mph - N/A   Scattered Clouds
8:15 PM 62.6 °F 53.6 °F 72% 30.04 in 10.0 mi NW 5.8 mph - N/A   Mostly Cloudy
8:35 PM 60.8 °F 53.6 °F 77% 30.05 in 10.0 mi NW 5.8 mph - N/A   Clear
8:55 PM 60.8 °F 53.6 °F 77% 30.06 in 10.0 mi NW 5.8 mph - N/A   Clear
9:15 PM 59.0 °F 53.6 °F 82% 30.06 in 10.0 mi NW 4.6 mph - N/A   Clear
9:35 PM 59.0 °F 53.6 °F 82% 30.06 in 10.0 mi NNW 4.6 mph - N/A   Clear
9:55 PM 59.0 °F 53.6 °F 82% 30.06 in 10.0 mi NNW 3.5 mph - N/A   Clear
10:15 PM 59.0 °F 53.6 °F 82% 30.07 in 10.0 mi NW 4.6 mph - N/A   Clear
10:35 PM 59.0 °F 53.6 °F 82% 30.07 in 10.0 mi NW 3.5 mph - N/A   Clear
10:55 PM 57.2 °F 53.6 °F 88% 30.06 in 10.0 mi North 3.5 mph - N/A   Clear
11:15 PM 55.4 °F 53.6 °F 94% 30.06 in 10.0 mi Calm Calm - N/A   Clear
11:35 PM 55.4 °F 53.6 °F 94% 30.06 in 10.0 mi Calm Calm - N/A   Clear
11:55 PM 55.4 °F 51.8 °F 88% 30.06 in 9.0 mi Calm Calm - N/A   Clear